Regional Weather Roundup
Issued by NWS

Home | Current Version | Previous Version | Text Only | Print | Product List | Glossary On
Versions: 1 2 3 4 5 6 7 8 9 10 11 12 13 14 15 16 17 18 19 20 21 22 23 24 25 26 27 28 29 30 31 32 33 34 35 36 37 38 39 40 41 42 43 44 45 46 47 48 49 50
000
ASUS42 KTBW 060317
RWRFL
FLORIDA REGIONAL WEATHER ROUNDUP
NATIONAL WEATHER SERVICE TAMPA BAY RUSKIN FL
1100 PM EDT SUN JUL 05 2015

NOTE: "FAIR" INDICATES FEW OR NO CLOUDS BELOW 12,000 FEET WITH NO
SIGNIFICANT WEATHER AND/OR OBSTRUCTIONS TO VISIBILITY.


FLZ001>010-012>015-112-114-115-060400-
PANHANDLE FLORIDA

CITY           SKY/WX    TMP DP  RH WIND       PRES   REMARKS
PENSACOLA      CLOUDY    72  67  84 NW9       30.16R
PENSACOLA NAS  CLOUDY    74  67  78 N5        30.15R
MILTON NAS     MOCLDY    70  68  93 CALM      30.17
CRESTVIEW      MOCLDY    73  68  84 W7        30.18R
TRI COUNTY     FAIR      73  72  96 CALM      30.16R
PANAMA CITY    FAIR      75  71  87 W6        30.15R
APALACHICOLA   MOCLDY    78  72  81 CALM      30.15R

STATION/POSITION SKY/WX   TEMP    WIND        PRES    WAVE   SWELL
                          AIR SEA DIR/SP/G            HT/PER HT/PER
                          (F)     (DEG/KT/KT) (MB)    (FT/S) (FT/S)
30.1N   87.6W              80 83  290/ 19/ 25 1020.0R   1/ 2
29.2N   88.2W              79 85  320/ 21/ 25 1022.0R   3/ 5
28.8N   86.0W              82 85   10/  8/ 10 1021.6R   1/ 7   2/ 7
PANAMA CITY BEAC           79 82  210/  5/  7 1020.4R
CAPE SAN BLAS    NOT AVBL
TOWER C                    79      90/  3/  4 1021.1R
28.5N   84.5W              83 85   50/  8/ 10 1021.5R   3/ 5   2/ 5

$$
FLZ011-016>038-118-127-128-134-139-239-060400-
NORTH FLORIDA

CITY           SKY/WX    TMP DP  RH WIND       PRES   REMARKS
MARIANNA       MOCLDY    73  73 100 CALM      30.15R
TALLAHASSEE    PTCLDY    73  71  93 SE3       30.15S
PERRY          PTCLDY    74  74 100 E3        30.15S
CROSS CITY       N/A     73  70  90 NE3       30.15R
LAKE CITY      FAIR      70  70 100 CALM      30.15S
GAINESVILLE    MOCLDY    69  68  96 W3        30.15R
MAYPORT NAS    MOCLDY    73  71  93 SW6       30.13R
JACKSONVILLE   CLOUDY    71  70  96 W3        30.12R
JAX NAS        CLOUDY    76  71  85 W6        30.13R
JAX CRAIG      MOCLDY    73  71  93 W3        30.13R
JAX CECIL      PTCLDY    72  70  94 CALM      30.13S
FERNANDINA BEA MOCLDY    73  72  94 SW6       30.12R
ST AUGUSTINE   CLOUDY    72  71  97 S6        30.13S

STATION/POSITION SKY/WX   TEMP    WIND        PRES    WAVE   SWELL
                          AIR SEA DIR/SP/G            HT/PER HT/PER
                          (F)     (DEG/KT/KT) (MB)    (FT/S) (FT/S)
SHELL POINT                74     340/  4/  5   N/A
KEATON BEACH               74      90/  6/  8 1021.2R
CEDAR KEY                  75      50/  3/  3 1021.4R
FERNANDINA                 74 82  240/  6/  8 1018.6F
30.7N   81.3W                 78                N/A     2/ 8
MAYPORT                    72 81  200/  3/  7 1019.6F
31.4N   80.9W              76 79  220/  6/  8 1019.5R   2/ 3   2/14
ST AUGUSTINE               72 71  170/ 10/ 10 1021.0R

$$
FLZ040-043>046-052-053-057-058-063-144-060400-
INTERIOR CENTRAL FLORIDA

CITY           SKY/WX    TMP DP  RH WIND       PRES   REMARKS
OCALA          MOCLDY    72  68  88 CALM      30.16R
THE VILLAGES     N/A    N/A N/A N/A E5        30.06R
LEESBURG       CLOUDY    75  71  87 SE8       30.17R
SANFORD        CLOUDY    74  71  91 S5        30.18R
ORLANDO EXEC   CLOUDY    74  73  97 CALM      30.18R
ORLANDO INTL   CLOUDY    75  73  93 S10       30.18R
WINTER HAVEN   LGT RAIN  75  73  93 SE13      30.19F
LAKELAND       CLOUDY    72  72 100 MISG      30.18S
OKEECHOBEE     TSTM      70  68  94 NW8       30.26R

$$
FLZ041-047-054-059-064-141-147-060400-
EAST CENTRAL FLORIDA

CITY           SKY/WX    TMP DP  RH WIND       PRES   REMARKS
DAYTONA BEACH  CLOUDY    74  72  93 CALM      30.16R
DELAND           N/A     72  72 100 S5        30.17S
CAPE CANAVERAL CLOUDY    75  72  88 SE2       30.18S
PATRICK AFB    LGT RAIN  75  72  88 S3        30.19S
MELBOURNE      CLOUDY    73  71  93 S3        30.20R
VERO BEACH     CLOUDY    75  69  81 NW9       30.20R
FT PIERCE      RAIN      72  70  93 SW13      30.23R FOG
STUART         CLOUDY    73  68  83 W22G29    30.23R

STATION/POSITION SKY/WX   TEMP    WIND        PRES    WAVE   SWELL
                          AIR SEA DIR/SP/G            HT/PER HT/PER
                          (F)     (DEG/KT/KT) (MB)    (FT/S) (FT/S)
28.5N   80.2W              78 81  270/ 10/ 12 1022.6R
28.9N   78.5W              83 84  140/  4/  6 1021.8R
TRIDENT PIER               75 79  210/  4/  6 1022.8R
28.4N   80.5W                 78                N/A     1/ 8
27.5N   80.2W                 82                N/A     2/ 4

$$
FLZ050-056-061-142-242-148-248-149-249-151-251-155-255-
160-260-060400-
WEST CENTRAL FLORIDA

CITY           SKY/WX    TMP DP  RH WIND       PRES   REMARKS
CRYSTAL RIVER  FAIR      73  70  88 CALM      30.15R
INVERNESS      FAIR     N/A N/A N/A CALM      30.16R
BROOKSVILLE    CLOUDY    73  71  93 E5        30.16R
ZEPHYRHILLS    FAIR      70  70 100 CALM      30.17R
CLEARWATER     CLOUDY    66 N/A N/A SE14      30.14F
TAMPA INTL     CLOUDY    78  69  73 SE9       30.15F
TAMPA EXEC     CLOUDY   N/A N/A N/A SE8       30.15F
PLANT CITY     CLOUDY    75  73  94 SE10      30.18F
PETER O KNIGHT CLOUDY    79  72  78 SE15G21   30.15F
ST PETERSBURG  CLOUDY    79  72  79 SE20      30.13F
SARASOTA       CLOUDY    73  71  93 E14       30.14F
VENICE         FAIR      73  72  94 SE12G21   30.17F

STATION/POSITION SKY/WX   TEMP    WIND        PRES    WAVE   SWELL
                          AIR SEA DIR/SP/G            HT/PER HT/PER
                          (F)     (DEG/KT/KT) (MB)    (FT/S) (FT/S)
CEDAR KEY                  75      50/  3/  3 1021.4R
28.5N   84.5W              83 85   50/  8/ 10 1021.5R   3/ 5   2/ 5
27.3N   84.2W                 86                N/A     4/ 6
CLEARWATER BEACH NOT AVBL
MIDDLE TAMPA BAY                  130/ 14/ 17 1021.7R
VENICE                     74 89   50/ 12/ 16 1021.9R

$$
FLZ066-069-070-075>078-162-262-165-265-060400-
SOUTHWEST FLORIDA AND KEYS

CITY           SKY/WX    TMP DP  RH WIND       PRES   REMARKS
PUNTA GORDA    LGT RAIN  73  72  96 E13       30.20F
FT MYERS       RAIN      73  72  96 E6        30.25R
SOUTHWEST INTL RAIN      73  71  93 E12       30.24R
MARCO ISLAND   CLOUDY    73  68  83 N15G22    30.19R
MARATHON       PTCLDY    85  76  74 E6        30.14R
KEY WEST NAS   PTCLDY    85  76  74 E9        30.14R
KEY WEST INTL  PTCLDY    85  78  80 E7        30.14R HX  96

STATION/POSITION SKY/WX   TEMP    WIND        PRES    WAVE   SWELL
                          AIR SEA DIR/SP/G            HT/PER HT/PER
                          (F)     (DEG/KT/KT) (MB)    (FT/S) (FT/S)
VENICE                     74 89   50/ 12/ 16 1021.9R
NAPLES                        89              1023.1R
26.0N   85.6W              83 86   70/ 17/ 21 1019.5R   3/ 4   2/10
DRY TORTUGAS               85     110/ 11/ 12 1020.0R
NW FL BAY                  87     130/ 11/ 13 1020.8
SAND KEY                   85      90/ 13/ 15 1020.3R
SOMBRERO KEY               84      90/ 10/ 11 1021.4R
LONG KEY                   85 88  110/ 10/ 11 1021.7R
MOLASSES REEF              84 86   50/  7/  8 1021.1R

$$
FLZ067-068-071>074-168-172>174-060400-
SOUTHEAST FLORIDA

CITY           SKY/WX    TMP DP  RH WIND       PRES   REMARKS
W PALM BEACH   CLOUDY    84  75  74 SE6       30.19R
FT LAUDER-EXEC PTCLDY    85  76  74 E8        30.17R
FT LAUDERDALE  MOCLDY    85  77  77 E10       30.17R HX  95
POMPANO BEACH  PTCLDY    85  76  74 SE9       30.17R
PEMBROKE PINES PTCLDY    85  75  72 E9        30.18R
OPA LOCKA      PTCLDY    85  76  74 E8        30.17R
MIAMI          PTCLDY    85  75  72 E9        30.17R
WEST KENDALL   CLOUDY    83  76  79 E8        30.17R
HOMESTEAD      NOT AVBL

STATION/POSITION SKY/WX   TEMP    WIND        PRES    WAVE   SWELL
                          AIR SEA DIR/SP/G            HT/PER HT/PER
                          (F)     (DEG/KT/KT) (MB)    (FT/S) (FT/S)
PORT EVERGLADES            85     110/  4/ 10 1021.2R
VIRGINIA KEY               85 88  100/  9/ 11 1020.9R
LAKE WORTH                 84 86  130/ 10/ 11 1021.2R
SETTLEMENT POINT           82     140/  6/  7 1022.9R

$$



USA.gov is the U.S. government's official web portal to all federal, state and local government web resources and services.